Location: Newark
(23.3970°S, 47.6010°W)
Time: 05:35:42
(UTC+00:00)

Vanguard 2 - All Passes

Search period start: 27 February 2020 00:00
Search period end: 08 March 2020 00:00
Orbit: 552 x 2939 km, 32.9° (Epoch: 26 February)

Date Brightness Start Highest point End Pass type
(mag) Time Alt. Az. Time Alt. Az. Time Alt. Az.
27 Feb - 10:32:35 10° N 10:42:37 18° NE 10:52:05 10° ENE daylight
27 Feb - 12:38:35 10° NW 12:55:11 48° NNE 13:07:44 10° ESE daylight
27 Feb - 14:50:45 10° WNW 15:07:12 86° SSW 15:17:28 10° ESE daylight
27 Feb - 17:06:21 10° W 17:18:29 50° SSW 17:25:46 10° ESE daylight
27 Feb - 19:21:02 10° WSW 19:29:06 43° S 19:34:12 10° E daylight
27 Feb - 21:32:30 10° WSW 21:38:10 69° NNW 21:42:16 10° NE daylight
28 Feb - 10:47:53 10° N 11:00:52 25° NE 11:12:47 10° E daylight
28 Feb - 12:55:57 10° NW 13:13:19 60° NNE 13:26:05 10° ESE daylight
28 Feb - 15:09:15 10° WNW 15:25:23 74° SSW 15:35:24 10° ESE daylight
28 Feb - 17:25:14 10° WSW 17:36:49 46° S 17:43:49 10° ESE daylight
28 Feb - 19:39:19 10° WSW 19:47:20 52° SSE 19:52:22 10° E daylight
28 Feb - 21:50:46 10° WSW 21:55:55 40° NW 21:59:48 10° NE daylight
29 Feb - 11:04:06 10° NNW 11:19:00 34° NE 11:32:22 10° E daylight
29 Feb - 13:13:39 10° NW 13:31:28 73° NNE 13:44:15 10° ESE daylight
29 Feb - 15:27:58 10° W 15:43:38 64° SSW 15:53:21 10° ESE daylight
29 Feb - 17:44:02 10° WSW 17:55:12 46° S 18:01:56 10° ESE daylight
29 Feb - 19:57:31 10° WSW 20:05:30 67° SSE 20:10:26 10° ENE daylight
29 Feb - 22:09:23 10° W 22:13:32 23° NW 22:16:53 10° NNE visible
01 Mar - 09:17:43 10° NNE 09:24:46 14° NE 09:31:57 10° ENE daylight
01 Mar - 11:20:51 10° NNW 11:37:04 44° NE 11:51:19 10° E daylight
01 Mar - 13:31:41 10° WNW 13:49:38 86° NNE 14:02:20 10° ESE daylight
01 Mar - 15:46:49 10° W 16:01:58 58° SSW 16:11:21 10° ESE daylight
01 Mar - 18:02:42 10° WSW 18:13:35 48° S 18:20:07 10° ESE daylight
01 Mar - 20:15:43 10° WSW 20:23:30 88° NNW 20:28:21 10° ENE daylight
01 Mar - 22:28:55 10° WNW 22:31:04 13° NW 22:33:00 10° NNW visible
02 Mar - 09:31:54 10° N 09:42:54 21° NE 09:54:09 10° E daylight
02 Mar - 11:38:00 10° NW 11:55:07 55° NE 12:09:54 10° ESE daylight
02 Mar - 13:49:58 10° WNW 14:07:52 82° SSW 14:20:20 10° ESE daylight
02 Mar - 16:05:45 10° W 16:20:23 54° S 16:29:26 10° ESE daylight
02 Mar - 18:21:12 10° WSW 18:31:56 54° S 18:38:18 10° E daylight
02 Mar - 20:33:58 10° WSW 20:41:20 59° NNW 20:46:02 10° NE daylight
03 Mar - 09:47:38 10° N 10:00:53 29° NE 10:14:27 10° E daylight
03 Mar - 11:55:29 10° NW 12:13:12 67° NNE 12:28:14 10° ESE daylight
03 Mar - 14:08:32 10° WNW 14:26:11 72° SSW 14:38:20 10° ESE daylight
03 Mar - 16:24:40 10° WSW 16:38:52 52° S 16:47:35 10° ESE daylight
03 Mar - 18:39:35 10° WSW 18:50:13 64° SSE 18:56:25 10° E daylight
03 Mar - 20:52:25 10° WSW 20:59:00 37° NW 21:03:26 10° NNE daylight
04 Mar - 10:04:05 10° NNW 10:18:47 38° NE 10:33:50 10° E daylight
04 Mar - 12:13:16 10° NW 12:31:21 79° NNE 12:46:24 10° ESE daylight
04 Mar - 14:27:16 10° W 14:44:35 64° SSW 14:56:24 10° ESE daylight
04 Mar - 16:43:30 10° WSW 16:57:22 53° S 17:05:46 10° ESE daylight
04 Mar - 18:57:53 10° WSW 19:08:21 81° SSE 19:14:25 10° ENE daylight
04 Mar - 21:11:14 10° W 21:16:29 23° NW 21:20:22 10° N daylight
05 Mar - 08:17:34 10° NNE 08:25:12 15° NE 08:33:28 10° ENE visible
05 Mar - 10:20:59 10° NNW 10:36:42 48° NE 10:52:43 10° ESE daylight
05 Mar - 12:31:21 10° WNW 12:49:35 89° SSW 13:04:31 10° ESE daylight
05 Mar - 14:46:08 10° W 15:03:05 59° SSW 15:14:31 10° ESE daylight
05 Mar - 17:02:11 10° WSW 17:15:50 56° S 17:23:59 10° E daylight
05 Mar - 19:16:12 10° WSW 19:26:20 77° NNW 19:32:14 10° ENE daylight
05 Mar - 21:31:00 10° WNW 21:33:53 13° NW 21:36:19 10° NNW daylight
06 Mar - 08:32:21 10° N 08:43:02 22° NE 08:55:04 10° E visible
06 Mar - 10:38:14 10° NW 10:54:39 60° NE 11:11:15 10° ESE daylight
06 Mar - 12:49:41 10° WNW 13:07:55 78° SSW 13:22:37 10° ESE daylight
06 Mar - 15:05:02 10° W 15:21:40 57° S 15:32:42 10° ESE daylight
06 Mar - 17:20:44 10° WSW 17:34:15 64° SSE 17:42:09 10° E daylight
06 Mar - 19:34:34 10° WSW 19:44:06 55° NW 19:49:49 10° NE daylight
07 Mar - 08:48:22 10° NNW 09:00:47 31° NE 09:15:08 10° E visible
07 Mar - 10:55:49 10° NW 11:12:41 72° NNE 11:29:36 10° ESE daylight
07 Mar - 13:08:14 10° W 13:26:22 70° SSW 13:40:43 10° ESE daylight
07 Mar - 15:23:54 10° WSW 15:40:17 56° S 15:50:56 10° ESE daylight
07 Mar - 17:39:10 10° WSW 17:52:32 75° SSE 18:00:15 10° ENE daylight
07 Mar - 19:53:10 10° WSW 20:01:40 37° NW 20:07:05 10° NNE daylight
